loading
DOY 205 | 2024-07-23T02:25:56Z

DELTA 1 R/B(2), 1318

Orbit data source: Space-Track

DELTA 1 R/B(2), 1318 is space debris originally from a launch on Tue, 06 Apr 1965 UTC launched from the Air Force Eastern Test Range (AFETR). Debris objects in space refer to the collection of defunct objects orbiting the Earth. Examples of debris include non-operational satellites, rocket bodies, and fragments generated from explosions, collisions, or faulty payload assembly.

Loading next visibility...
Loading greatness...
DELTA 1 R/B(2) details
NORAD ID1318
COSPAR ID
1965-028B
Orbit
Molniya
Last TLE update1 day ago
Origin
Flag of USGSFC (US)
ManufacturerABL
BusAltair
MotorUnknown
Mass33 kg wet, 33 kg dry
Launch date (UTC)
1965-04-06 (59 years ago)
Launch vehicleUnknown
Launch site
Air Force Eastern Test Range (AFETR)
Object type
Payload
Rocket body
Debris
Radar Cross Section0.74 m², Medium (>0.1 m² and < 1m²)
Predictive object data (real-time)
Latitude-11.5254°
Longitude108.08772°
Altitude31,139.796 km
Speed2.384 km/s
Apparent Right ascension03h 37m 12s
Apparent Declination-15° 30' 26"
Sunlit
Object is in daylight
Predictive observer data (real-time)
Local Sidereal Time15:30:46
Azimuth356.249° N
Elevation-65.551°
Doppler factor1
Orbital elements
Apogee37,066.589 km
Perigee1,405.83 km
Semi-major axis25,614.346 km
Eccentricity0.6961091
Inclination17.507°
RAAN94.9322°
Arg. of periapsis159.2876°
True anomaly327.7476°
Mean anomaly355.6635°
Mean motion0.52944 °/min
BSTARUnknown
Period679.96 mins
Definitive object data (Epoch: 2024-07-22T00:24:41.511Z)
Latitude14.21342°
Longitude-84.33952°
Altitude1,977.163 km
Speed8.936 km/s
True Right ascension14h 48m 21s
True Declination14° 08' 37"
Sunlit
Object was in daylight at TLE epoch
TLE from 1 day ago
0 DELTA 1 R/B(2)
1 01318U 65028B   24204.01714712 -.00000010  00000-0  00000-0 0  9991
2 01318  17.5070  94.9322 6961091 159.2876 355.6635  2.11826561 92594
Epoch: 2024-07-22T00:24Z
No data available
Other satellites on launch #28 in the year 1965 (1965-04-06 UTC)

DELTA 1 R/B(2) Visibility forecast

Observer location: 39.9160978°, -105.1181434

DELTA 1 R/B(2) is not visible in the next 10 days
Span
Click to sort rows by Start time (UTC) header in descending order
Start Az.
Max El. time (UTC)
Max El. Az.
Max El.
End time (UTC)
End Az.